[[{"header":{"parameterUnit":"m.s-1","parameterCategory":1,"la1":30.2991,"la2":30.254,"lo1":-89.0895,"lo2":-89.0444,"dy":0.0017,"dx":0.0017,"nx":28,"ny":28,"refTime":"2024-06-26T21:00:00:Z","depth":0,"parameterNumber":2,"parameterNumberName":"U-component_of_WINDS"},"data":[0,0,0,0,0,0,0,0,0,0,0,0,0,0,0,0,0,0,0,0,0,0,0,0,0,0,0,0,0,0,0,0,0,0,0,0,0,0,0,0,0,0,0,0,0,0,0,0,0,0,0,0,0,0,0,0,0,0,4.0448,4.0451,0,4.0754,4.0757,4.076,4.078,4.0777,4.0773,4.077,4.1088,4.1099,4.1111,0,0,0,0,0,0,0,0,0,0,0,0,0,3.9886,3.9896,4.0448,4.0452,4.0456,4.0753,4.0757,4.0761,4.0781,4.0776,4.0772,4.0768,4.1084,4.1098,4.1112,0,0,0,0,0,0,0,0,0,0,0,0,0,4.0155,3.99,4.0447,4.0501,4.0509,4.0752,4.0757,4.0762,4.0782,4.0776,4.0771,4.0766,4.108,4.1097,4.1114,4.1326,0,0,4.1167,4.1175,0,0,0,0,0,0,0,0,4.014,4.0175,4.0489,4.0498,4.0507,4.0723,4.0676,4.0952,4.0783,4.0678,4.077,4.0764,4.0971,4.0997,4.1066,4.1341,4.1355,4.1169,4.118,4.1187,4.1192,0,0,0,0,0,0,0,4.0121,4.0162,4.0569,4.0494,4.0505,4.0511,4.0544,4.0728,4.085,4.0687,4.0689,4.0725,4.0975,4.1049,4.1074,4.1359,4.1169,4.1184,4.1195,4.1202,4.1824,4.183,0,0,0,0,0,0,4.0091,4.0147,4.0559,4.0578,4.0306,4.0526,4.0562,4.0659,4.0848,4.0872,4.0729,4.0724,4.1022,4.1053,4.1085,4.1346,4.1187,4.1204,4.1214,4.1818,4.1825,4.1832,0,0,0,0,0,0,4.0079,4.0128,4.0547,4.0363,4.0417,4.0541,4.065,4.0668,4.0742,4.088,4.0902,4.0782,4.1019,4.106,4.1266,4.1357,4.1211,4.1227,4.1811,4.182,4.1829,4.1869,0,0,0,0,0,0,4.0063,4.0123,4.0204,4.0365,4.0427,4.0721,4.0656,4.0678,4.0772,4.0769,4.0935,4.0958,4.1018,4.1239,4.1283,4.1379,4.1241,4.1803,4.1815,4.1826,4.186,4.1878,4.1894,0,0,0,0,0,4.0043,4.0205,4.0208,4.0258,4.053,4.0726,4.0762,4.0826,4.0779,4.0862,4.095,4.0953,4.134,4.126,4.131,4.1412,4.1798,4.1812,4.1825,4.1852,4.1875,4.1893,0,0,0,0,0,0,4.0053,4.0227,4.0232,4.0451,4.0573,4.0729,4.0836,4.0847,4.0987,4.0979,4.1054,4.1092,4.1295,4.1374,4.1282,4.1627,4.1564,4.1588,4.1568,4.159,4.1607,4.1584,4.1256,0,0,0,0,0,4.008,4.0224,4.0368,4.0547,4.0608,4.0711,4.0799,4.0838,4.0969,4.1021,4.1125,4.1253,4.1404,4.1501,4.1648,4.1872,4.1909,4.1966,4.1983,4.1996,4.2016,4.2141,4.2168,4.1876,4.1876,4.1876,0,0,4.0139,4.0252,4.0338,4.0552,4.0651,4.08,4.0755,4.0914,4.1025,4.1046,4.1245,4.1326,4.1475,4.169,4.179,4.1762,4.2105,4.2014,4.2023,4.2036,4.2158,4.2185,4.221,4.1885,4.1884,4.1882,0,0,4.0322,4.0421,4.058,4.0681,4.0831,4.0899,4.0937,4.1092,4.1145,4.1346,4.1365,4.15,4.1757,4.1862,4.1949,4.2171,4.2179,4.2217,4.2305,4.2425,4.2448,4.2469,4.2548,4.2576,4.2236,4.2236,4.2236,0,4.0376,4.0598,4.0661,4.082,4.0913,4.0938,4.1101,4.1196,4.1387,4.1452,4.1418,4.1741,4.1843,4.2083,4.2137,4.2207,4.2254,4.2198,4.244,4.2461,4.2482,4.2558,4.2588,4.224,4.224,4.2239,4.2239,0,4.0657,4.0811,4.0922,4.1104,4.1211,4.1371,4.146,4.156,4.159,4.1661,4.1866,4.1989,4.216,4.222,4.2251,4.2466,4.2443,4.2424,4.2361,4.2512,4.2585,4.2615,4.2245,4.2244,4.2243,4.2242,0,0,4.0855,4.1069,4.1109,4.1192,4.136,4.1481,4.1643,4.1808,4.1893,4.2025,4.2162,4.238,4.2362,4.2461,4.2504,4.261,4.2778,4.2578,4.2582,4.2611,4.3022,4.3035,4.3068,4.2784,4.279,4.2795,4.3009,0,4.1056,4.1341,4.1403,4.165,4.1793,4.1818,4.1959,4.2078,4.215,4.2283,4.2363,4.2515,4.2481,4.254,4.2646,4.2735,4.2861,4.272,4.2914,4.292,4.2876,4.3106,4.3121,4.3318,4.3038,4.3043,4.3047,0,4.1328,4.1464,4.1724,4.1873,4.1936,4.2061,4.2218,4.2344,4.248,4.2525,4.2635,4.2667,4.2837,4.2766,4.3003,4.2905,4.2988,4.3044,4.3053,4.3074,4.2992,4.3133,4.3382,4.3411,4.3092,4.3089,4.3085,0,4.1445,4.1694,4.1882,4.1952,4.213,4.2218,4.2297,4.2427,4.2523,4.2661,4.2724,4.288,4.2966,4.3087,4.3161,4.3103,4.3392,4.3327,4.3435,4.3433,4.3494,4.3489,4.376,4.3548,4.3547,4.3547,4.3546,0,4.1663,4.1822,4.1937,4.2053,4.2231,4.2301,4.2477,4.2556,4.2672,4.2804,4.2836,4.296,4.305,4.3188,4.3247,4.3433,4.3472,4.3514,4.3528,4.3511,4.3506,4.3567,4.3555,4.3555,4.3553,4.3552,4.355,0,4.1825,4.1908,4.2115,4.2266,4.2308,4.2433,4.2563,4.2677,4.2749,4.2916,4.296,4.3073,4.3236,4.3321,4.3526,4.3565,4.3775,4.3781,4.3728,4.3734,4.3836,4.3826,4.4156,4.4203,4.3959,4.3961,4.3963,0,4.1958,4.208,4.2244,4.2334,4.2414,4.2559,4.2656,4.2731,4.2831,4.2995,4.309,4.3254,4.3389,4.3648,4.375,4.3906,4.3917,4.4022,4.3941,4.392,4.3918,4.391,4.3923,4.4036,4.4038,4.404,4.4041,0,4.2186,4.2221,4.2359,4.2512,4.2626,4.2751,4.2874,4.2946,4.3041,4.3152,4.3318,4.3423,4.363,4.3793,4.3957,4.404,4.4058,4.4066,4.4099,4.4083,4.4048,4.4068,4.3767,4.4058,4.4057,4.4055,4.4054,4.4054,4.2338,4.2447,4.2579,4.2732,4.2832,4.2946,4.3061,4.3146,4.3285,4.3458,4.3494,4.367,4.3803,4.4025,4.4113,4.4253,4.4231,4.4279,4.4291,4.4302,4.4306,4.4025,4.4283,4.4282,4.4282,4.4282,4.4282,0,4.2567,4.2653,4.2793,4.2963,4.3083,4.3087,4.3223,4.3324,4.3478,4.36,4.3732,4.3923,4.4081,4.4194,4.4356,4.4446,4.4458,4.4486,4.448,4.4499,4.4316,4.4271,4.4473,4.4473,4.4473,4.4473,4.4473,4.4473,4.27,4.2886,4.2936,4.3173,4.3258,4.3429,4.3506,4.3612,4.371,4.3921,4.4052,4.4124,4.4244,4.4414,4.456,4.4589,4.4648,4.4675,4.4705,4.4532,4.4512,4.4493,4.4451,4.4687,4.4687,4.4876,4.4878,4.4879]},{"header":{"parameterUnit":"m.s-1","parameterCategory":1,"la1":30.2991,"la2":30.254,"lo1":-89.0895,"lo2":-89.0444,"dy":0.0017,"dx":0.0017,"nx":28,"ny":28,"refTime":"2024-06-26T21:00:00:Z","depth":0,"parameterNumber":3,"parameterNumberName":"V-component_of_WINDS"},"data":[0,0,0,0,0,0,0,0,0,0,0,0,0,0,0,0,0,0,0,0,0,0,0,0,0,0,0,0,0,0,0,0,0,0,0,0,0,0,0,0,0,0,0,0,0,0,0,0,0,0,0,0,0,0,0,0,0,0,5.2893,5.2895,0,5.3135,5.3138,5.3141,5.3133,5.313,5.3127,5.3124,5.3365,5.3374,5.3384,0,0,0,0,0,0,0,0,0,0,0,0,0,5.2413,5.2422,5.2892,5.2895,5.2898,5.3135,5.3138,5.3142,5.3134,5.313,5.3126,5.3122,5.3362,5.3373,5.3385,0,0,0,0,0,0,0,0,0,0,0,0,0,5.2635,5.2425,5.2892,5.2923,5.2929,5.3134,5.3138,5.3143,5.3135,5.313,5.3125,5.312,5.3358,5.3372,5.3386,5.3574,0,0,5.343,5.3436,0,0,0,0,0,0,0,0,5.2623,5.2653,5.2916,5.2922,5.2928,5.3099,5.3058,5.3287,5.3136,5.3056,5.3124,5.3118,5.328,5.3301,5.3357,5.3586,5.3596,5.3431,5.344,5.3446,5.345,0,0,0,0,0,0,0,5.2607,5.2642,5.2988,5.2919,5.2927,5.2923,5.2949,5.3101,5.3193,5.3063,5.3063,5.3092,5.3282,5.3343,5.3363,5.36,5.3431,5.3444,5.3452,5.3458,5.3993,5.3998,0,0,0,0,0,0,5.2586,5.2629,5.2981,5.2996,5.276,5.2935,5.2964,5.3049,5.3191,5.3209,5.3096,5.3091,5.3321,5.3346,5.3371,5.36,5.3446,5.3459,5.3468,5.3987,5.3994,5.4,0,0,0,0,0,0,5.2576,5.2618,5.2971,5.2813,5.2857,5.2949,5.3044,5.3057,5.3117,5.3217,5.3232,5.3142,5.3318,5.3351,5.3524,5.3609,5.3466,5.3479,5.3981,5.3989,5.3997,5.4061,0,0,0,0,0,0,5.2562,5.2614,5.2689,5.2815,5.2866,5.3123,5.3049,5.3065,5.3143,5.3138,5.3264,5.328,5.3317,5.3503,5.3538,5.3626,5.349,5.3973,5.3985,5.3994,5.4051,5.407,5.4086,0,0,0,0,0,5.2545,5.2696,5.2693,5.2735,5.2962,5.3128,5.3157,5.3199,5.315,5.3224,5.3288,5.3276,5.3593,5.3521,5.356,5.3653,5.3968,5.3981,5.3994,5.4044,5.4066,5.4086,0,0,0,0,0,0,5.2575,5.2713,5.2711,5.2907,5.3006,5.3126,5.3222,5.3222,5.3335,5.3325,5.337,5.3398,5.3571,5.3629,5.3546,5.3842,5.3774,5.3795,5.3798,5.3821,5.3838,5.3821,5.3502,0,0,0,0,0,5.2605,5.2731,5.2843,5.3005,5.3055,5.313,5.3204,5.3227,5.333,5.3372,5.3448,5.3546,5.3668,5.3747,5.3865,5.4059,5.4085,5.4142,5.4159,5.4173,5.4191,5.4297,5.4323,5.4042,5.4042,5.4041,0,0,5.2667,5.2758,5.2834,5.3013,5.3093,5.322,5.3165,5.3302,5.3396,5.3392,5.3561,5.362,5.3732,5.3916,5.4001,5.397,5.4275,5.4189,5.42,5.4211,5.4313,5.4339,5.4363,5.405,5.4049,5.4047,0,0,5.2846,5.2927,5.3071,5.3152,5.3274,5.3322,5.3356,5.3477,5.3517,5.3687,5.3687,5.3797,5.4006,5.4087,5.4154,5.4361,5.4354,5.4398,5.4489,5.4592,5.4614,5.4634,5.4707,5.4733,5.4415,5.4415,5.4415,0,5.2907,5.3101,5.3144,5.3283,5.3361,5.3364,5.3509,5.3584,5.3737,5.3789,5.3752,5.4015,5.409,5.4293,5.4343,5.4398,5.4437,5.4385,5.4608,5.4628,5.4647,5.4717,5.4745,5.442,5.4419,5.4419,5.4418,0,5.317,5.3305,5.3406,5.3556,5.3645,5.3785,5.3847,5.3931,5.3946,5.3997,5.4169,5.4261,5.4396,5.4446,5.4461,5.465,5.4627,5.4598,5.4531,5.4678,5.4745,5.4772,5.4426,5.4425,5.4423,5.4422,0,0,5.3377,5.3548,5.3585,5.3652,5.3786,5.3889,5.4028,5.4163,5.4234,5.4338,5.4455,5.4631,5.4605,5.4682,5.4706,5.4796,5.4953,5.4756,5.4759,5.479,5.5166,5.5187,5.5218,5.4948,5.4953,5.4958,5.5156,0,5.3569,5.382,5.3862,5.4081,5.4204,5.4208,5.4329,5.4422,5.4473,5.4583,5.4637,5.4762,5.4719,5.4765,5.4854,5.4915,5.5029,5.4901,5.5055,5.506,5.5029,5.5253,5.5277,5.546,5.5183,5.5187,5.519,0,5.3829,5.3942,5.4174,5.429,5.4344,5.4452,5.4578,5.4684,5.4788,5.4819,5.4905,5.4917,5.5059,5.4984,5.5178,5.509,5.5155,5.5194,5.5202,5.5219,5.5135,5.5276,5.552,5.5547,5.5232,5.5229,5.5226,0,5.3956,5.4166,5.4332,5.439,5.4529,5.4605,5.4666,5.4766,5.4844,5.4953,5.5004,5.5127,5.5194,5.5287,5.5332,5.5274,5.5523,5.5452,5.555,5.555,5.5604,5.56,5.5862,5.5644,5.5644,5.5643,5.5643,0,5.4168,5.4309,5.4392,5.4494,5.4651,5.4696,5.485,5.4908,5.4997,5.5108,5.5117,5.522,5.5273,5.5383,5.5418,5.5573,5.5603,5.563,5.5638,5.563,5.5627,5.5674,5.5663,5.5651,5.5649,5.5648,5.5646,0,5.4338,5.4399,5.458,5.4697,5.473,5.4841,5.4939,5.5037,5.5086,5.5227,5.5262,5.5339,5.547,5.5523,5.5682,5.5705,5.5883,5.5881,5.5849,5.5852,5.5947,5.5938,5.6249,5.6292,5.6045,5.6048,5.605,0,5.447,5.4579,5.4708,5.4785,5.4849,5.4972,5.5052,5.5099,5.5181,5.5308,5.5389,5.552,5.5628,5.5835,5.5903,5.6024,5.6025,5.6125,5.6043,5.6032,5.6027,5.602,5.6031,5.6141,5.6143,5.6145,5.6147,0,5.4697,5.4722,5.4839,5.4966,5.5062,5.5163,5.5262,5.5323,5.5385,5.5476,5.5611,5.5694,5.5857,5.5986,5.6111,5.617,5.6169,5.6172,5.6202,5.6195,5.6173,5.6187,5.5891,5.6165,5.6164,5.6162,5.6161,5.616,5.4853,5.495,5.5056,5.5185,5.5265,5.5357,5.5455,5.5517,5.5631,5.5769,5.5788,5.5932,5.6031,5.6199,5.6263,5.6374,5.6348,5.639,5.6401,5.6411,5.6418,5.6154,5.6396,5.6396,5.6396,5.6395,5.6395,0,5.5081,5.5149,5.5268,5.5407,5.5508,5.55,5.5608,5.5692,5.582,5.5913,5.6019,5.6173,5.6297,5.6375,5.65,5.6574,5.6576,5.6605,5.66,5.6614,5.6434,5.6396,5.6601,5.6601,5.6601,5.6601,5.6601,5.6601,5.5212,5.5376,5.5413,5.5615,5.5681,5.5825,5.5887,5.5971,5.6046,5.6219,5.6323,5.6374,5.646,5.6591,5.6704,5.6723,5.6769,5.68,5.6817,5.6648,5.6626,5.6606,5.6571,5.6809,5.681,5.6988,5.699,5.6991]}]]